Location: Shepherdstown, WV
(39.4326°N, 77.8042°W)
Time: 01:18:35
(UTC-04:00)

X-37B - Pass Details

Date: 26 June 2021
Orbit: 383 x 392 km, 45.0° (Epoch: 01 July)

Event Time Altitude Azimuth Distance (km) Brightness Sun altitude
Rises 22:57:44 0° 282° (WNW) 2,255 5.1 -19.6°
Reaches altitude 10° 22:59:59 10° 295° (WNW) 1,401 4.2 -19.8°
Maximum altitude 23:02:46 28° 357° (N) 756 2.6 -20.1°
Enters shadow 23:04:58 14° 53° (NE) 1,204 3.1 -20.4°
